Flag for Switzerland Weather past 2 weeks in Lucerne, Lucerne, Switzerland

Now
30 °F

Chilly.


Feels Like: 30 °F
Forecast: 20 / 35 °F
Wind: 1 mph from East

Location: Giswil

Current Time: Dec 27, 2014 at 7:04:50 AM

Latest Report: Dec 27, 2014 at 6:00 AM


Visibility: N/A

Pressure: 29.93 "Hg

Humidity: 100%

Dew point: 30 °F

Location of LucerneLocation

Historic Weather in Lucerne — Graph

°F

Lucerne temperature yesterday

Maximum temperature yesterday: 41 °F (at 1:00 PM)
Minimum temperature yesterday: 27 °F (at 11:00 PM)
Average temperature yesterday: 35 °F

Past Weeks' High & Low Weather Summary

 TemperatureHumidityPressure
High50 °F (Dec 19, 10:00 PM)100% (Dec 12, 5:00 AM)30.65 "Hg (Dec 12, 5:00 AM)
Low24 °F (Dec 23, 5:00 AM)60% (Dec 13, 1:00 PM)29.90 "Hg (Dec 12, 9:00 PM)
Average37 °F95%30.26 "Hg
* Reported Dec 12 5:00 AM — Dec 27 5:00 AM, Lucerne, Weather by CustomWeather, © 2014

Note: Actual official high and low records may vary slightly from our data, if they occured in-between our weather recording intervals... More about our weather records

Advertising

Lucerne weather history for previous 24 hours

 ConditionsComfort  
Time TempWeatherWind HumidityBarometerVisibility
5:00 AM
Dec 27
29 °FChilly.1 mph99%30.01 "HgN/A
4:00 AM28 °FChilly.2 mph100%30.09 "HgN/A
3:00 AM27 °FChilly.1 mph99%30.16 "HgN/A
2:00 AM26 °FChilly.3 mph100%30.21 "HgN/A
1:00 AM24 °FCold.2 mph100%30.26 "HgN/A
12:00 AM25 °FCold.2 mph100%30.30 "HgN/A
11:00 PM
Dec 26
27 °FChilly.2 mph100%30.34 "HgN/A
9:00 PM28 °FChilly.1 mph100%30.39 "HgN/A
8:00 PM30 °FChilly.1 mph100%30.41 "HgN/A
7:00 PM32 °FChilly.1 mph99%30.42 "HgN/A
6:00 PM33 °FChilly.No wind98%30.42 "HgN/A
5:00 PM36 °FChilly.3 mph83%30.42 "HgN/A
4:00 PM39 °FChilly.2 mph69%30.42 "HgN/A
3:00 PM40 °FChilly.5 mph68%30.41 "HgN/A
2:00 PM41 °FQuite cool.6 mph70%30.41 "HgN/A
1:00 PM41 °FQuite cool.3 mph63%30.42 "HgN/A
12:00 PM38 °FChilly.1 mph91%30.46 "HgN/A
11:00 AM35 °FChilly.1 mph100%30.50 "HgN/A
10:00 AM34 °FChilly.2 mph100%30.51 "HgN/A
9:00 AM32 °FChilly.No wind100%30.50 "HgN/A
8:00 AM33 °FChilly.1 mph100%30.49 "HgN/A
7:00 AM33 °FChilly.1 mph100%30.49 "HgN/A
Weather by CustomWeather, © 2014

See weather overviewHow to use our weather pages